GW4358 Weather Reports


time (UTC)temp
F
wind
direction
speed
knots
gust
knots
rain 1hr
in
rain 24hr
in
rain mn
in
humidity
%
barometer
mb
20260906064550 -68 244 0.0 0.0 0.00 0.00 0.00 1013.4
20260906063053 -70 244 0.0 0.0 0.00 0.00 0.00 1013.2
20260906061541 -75 243 0.0 0.0 0.00 0.00 0.00 1013.1
20260906060037 -77 243 0.0 0.0 0.00 0.00 0.00 1013.0
20260906054532 -79 243 0.0 0.0 0.00 0.00 0.00 1013.0
20260906053030 -84 243 0.0 0.0 0.00 0.00 0.00 1013.3
20260906051525 -86 244 0.0 0.0 0.00 0.00 0.00 1013.4
20260906050022 -88 243 0.0 0.0 0.00 0.00 0.00 1013.3
20260906044515 -90 242 0.0 3.5 0.00 0.00 0.00 1013.2
20260906043010 -90 212 0.0 2.6 0.00 0.00 0.00 1013.2
20260906041506 -90 63 0.0 0.0 0.00 0.00 0.00 1013.0
20260906040001 -90 63 0.0 0.0 0.00 0.00 0.00 1012.9
20260906034557 -90 63 0.0 0.0 0.00 0.00 0.00 1012.8
20260906033054 -90 63 0.0 0.0 0.00 0.00 0.00 1012.9
20260906031549 -90 63 0.0 0.0 0.00 0.00 0.00 1012.8
20260906030044 -90 63 0.0 0.0 0.00 0.00 0.00 1012.6
20260906024551 -90 63 0.0 0.0 0.00 0.00 0.00 1012.4
20260906023036 -90 63 0.0 0.0 0.00 0.00 0.00 1012.3
20260906021531 -90 63 0.0 0.0 0.00 0.00 0.00 1012.0
20260906020027 -90 63 0.0 0.0 0.00 0.00 0.00 1011.6
20260906014539 -90 63 0.0 0.0 0.00 0.00 0.00 1011.4
20260906013018 -90 63 0.0 0.0 0.00 0.00 0.00 1011.5
20260906011526 -90 63 0.0 0.0 0.00 0.00 0.00 1011.2
20260906010009 -90 63 0.0 0.0 0.00 0.00 0.00 1011.0
20260906004505 -90 63 0.0 0.0 0.00 0.00 0.00 1010.8
20260906003113 -90 63 0.0 0.0 0.00 0.00 0.00 1010.7
20260906001556 -90 63 0.0 0.0 0.00 0.00 0.00 1010.8
20260906000059 -90 63 0.0 0.0 0.00 0.00 0.00 1010.7
20260905234548 -90 63 0.0 0.0 0.00 0.00 0.00 1010.8
20260905233043 -90 63 0.0 0.0 0.00 0.00 0.00 1010.8
20260905231540 -90 63 0.0 0.0 0.00 0.00 0.00 1010.6
20260905230033 -90 63 0.0 0.0 0.00 0.00 0.00 1010.5
20260905224533 -90 63 0.0 0.0 0.00 0.00 0.00 1010.4
20260905223026 -90 63 0.0 0.0 0.00 0.00 0.00 1010.5
20260905221521 -90 63 0.0 0.0 0.00 0.00 0.00 1010.4
20260905220022 -90 63 0.0 0.0 0.00 0.00 0.00 1010.6
20260905214511 -90 63 0.0 0.0 0.00 0.00 0.00 1010.6
20260905213009 -90 59 0.0 0.0 0.00 0.00 0.00 1010.7
20260905211503 -90 52 0.0 0.0 0.00 0.00 0.00 1010.8
20260905210059 -90 69 0.0 2.6 0.00 0.00 0.00 1011.0
20260905204601 -90 94 0.0 0.9 0.00 0.00 0.00 1011.1
20260905203056 -79 104 0.0 0.0 0.00 0.00 0.00 1011.2
20260905201546 -70 111 0.0 0.0 0.00 0.00 0.00 1011.4
20260905200052 -54 72 0.0 1.7 0.00 0.00 0.00 1011.7
20260905194545 -47 77 0.0 0.0 0.00 0.00 0.00 1012.0
20260905193033 -41 38 0.0 0.9 0.00 0.00 0.00 1012.2
20260905191529 -36 86 0.0 0.0 0.00 0.00 0.00 1012.6
20260905190029 -31 140 0.0 0.9 0.00 0.00 0.00 1012.8
20260905184520 -28 81 0.0 0.9 0.00 0.00 0.00 1013.0
20260905183015 -24 298 0.0 1.7 0.00 0.00 0.00 1013.3
20260905181511 -20 55 0.0 0.0 0.00 0.00 0.00 1013.4
20260905180007 -18 96 0.0 0.9 0.00 0.00 0.00 1013.6
20260905174501 -15 107 0.0 0.0 0.00 0.00 0.00 1013.7
20260905173058 -12 100 0.0 0.0 0.00 0.00 0.00 1013.8
20260905171554 -8 89 0.0 0.0 0.00 0.00 0.00 1014.1
20260905170055 -4 89 0.0 0.0 0.00 0.00 0.00 1014.3
20260905164545 -1 57 0.0 0.0 0.00 0.00 0.00 1014.7
20260905163040 1 49 0.0 0.0 0.00 0.00 0.00 1015.0
20260905161536 4 50 0.0 0.0 0.00 0.00 0.00 1015.2
20260905160040 7 355 0.0 0.0 0.00 0.00 0.00 1015.4
20260905154527 9 311 0.0 0.0 0.00 0.00 0.00 1015.4
20260905153022 12 219 0.0 0.0 0.00 0.00 0.00 1015.5
20260905151519 12 215 0.0 0.0 0.00 0.00 0.00 1015.6
20260905150013 13 215 0.0 0.0 0.00 0.00 0.00 1015.7
20260905144509 12 215 0.0 0.0 0.00 0.00 0.00 1015.7
20260905143005 12 201 0.0 0.0 0.00 0.00 0.00 1015.8
20260905141601 11 201 0.0 0.0 0.00 0.00 0.00 1015.8
20260905140057 10 202 0.0 0.0 0.00 0.00 0.00 1016.1
20260905134557 9 202 0.0 0.0 0.00 0.00 0.00 1016.1
20260905133047 7 202 0.0 0.0 0.00 0.00 0.00 1016.2
20260905131549 6 201 0.0 0.0 0.00 0.00 0.00 1016.3
20260905130039 5 202 0.0 0.0 0.00 0.00 0.00 1016.4
20260905124539 4 202 0.0 0.0 0.00 0.00 0.00 1016.4
20260905123029 4 202 0.0 0.9 0.00 0.00 0.00 1016.1
20260905121525 3 202 0.0 0.0 0.00 0.00 0.00 1016.2
20260905120021 3 202 0.0 0.0 0.00 0.00 0.00 1016.2
20260905114528 4 202 0.0 0.0 0.00 0.00 0.00 1016.2
20260905113021 4 202 0.0 0.0 0.00 0.00 0.00 1016.0
20260905111508 4 202 0.0 0.0 0.00 0.00 0.00 1015.8
20260905110003 4 202 0.0 0.0 0.00 0.00 0.00 1015.7
20260905104559 4 202 0.0 0.0 0.00 0.00 0.00 1015.7
20260905103055 5 202 0.0 0.9 0.00 0.00 0.00 1015.6
20260905101551 4 202 0.0 0.0 0.00 0.00 0.00 1015.6
20260905100055 4 202 0.0 0.0 0.00 0.00 0.00 1015.7
20260905094542 4 175 0.0 0.9 0.00 0.00 0.00 1015.8
20260905093040 5 175 0.0 0.0 0.00 0.00 0.00 1015.7
20260905091535 5 174 0.0 0.0 0.00 0.00 0.00 1015.8
20260905090029 5 173 0.0 0.0 0.00 0.00 0.00 1016.0
20260905084524 5 201 0.0 0.0 0.00 0.00 0.00 1016.1
20260905083024 5 96 0.0 0.0 0.00 0.00 0.00 1016.1
20260905081516 5 95 0.0 0.0 0.00 0.00 0.00 1016.2
20260905080011 5 96 0.0 0.0 0.00 0.00 0.00 1016.1
20260905074506 4 96 0.0 0.0 0.00 0.00 0.00 1016.3
20260905073051 5 96 0.0 0.9 0.00 0.00 0.00 1016.3
20260905071552 4 96 0.0 1.7 0.00 0.00 0.00 1016.5
20260905070043 4 96 0.0 0.9 0.00 0.00 0.00 1016.7